User: anonymous   Login
Location: Unspecified
(0.0000°N, 0.0000°E)
Time: 23:22:23
(UTC+00:00)
Language:

DSP F18 - Orbit

View from above orbital plane
View from above orbital plane
View from above satellite
View from above satellite

Ground track
Ground track

The orbit data is extracted from the following two-line orbital elements,

1 24737U 97008A   17299.95871309 0.00000000  00000-0  00000-0 0    00
2 24737  12.9299  28.5885 0009820 151.6926 208.3754  1.00270000    01
Epoch (UTC): 26 October 2017 23:00:32
Eccentricity: 0.0009820
inclination: 12.9299°
perigee height: 35745 km
apogee height: 35828 km
right ascension of ascending node: 28.5885°
argument of perigee: 151.6926°
revolutions per day: 1.00270000
mean anomaly at epoch: 208.3754°
orbit number at epoch: 0

The dashed part of the orbit path shows where the satellite is in the earth's shadow,  

DLR